N101AV KLEX-KPTK

Flight info

Callsign N101AV
Flight time 1h 34m
Altitude 45000
Route TORRR PETTE2
Aircraft C750/M-SBDE3FGHRWXY/S

Departure

Time 2026-04-20 21:14
Airport Blue Grass Airport (KLEX)

Arrival

Time 2026-04-20 22:49
Airport Oakland County International Airport (KPTK)
Time Latitude Longitude Altitude Speed Heading
2026-04-20 20:51 38.03521 -84.59781 949 ft 0 kts 95°
2026-04-20 20:58 38.03522 -84.59799 949 ft 4 kts 94°
2026-04-20 20:59 38.03525 -84.59833 949 ft 4 kts 109°
2026-04-20 20:59 38.03535 -84.59855 945 ft 4 kts 180°
2026-04-20 20:59 38.03541 -84.59853 945 ft 1 kts 229°
2026-04-20 20:59 38.03543 -84.59851 946 ft 0 kts 229°
2026-04-20 21:05 38.03541 -84.59853 949 ft 1 kts 229°
2026-04-20 21:05 38.03538 -84.59858 955 ft 0 kts 228°
2026-04-20 21:07 38.03532 -84.59867 946 ft 3 kts 228°
2026-04-20 21:07 38.03520 -84.59887 948 ft 3 kts 239°
2026-04-20 21:07 38.03513 -84.59928 948 ft 7 kts 271°
2026-04-20 21:08 38.03526 -84.59996 947 ft 8 kts 291°
2026-04-20 21:08 38.03564 -84.60044 947 ft 8 kts 328°
2026-04-20 21:08 38.03593 -84.60067 947 ft 0 kts 328°
2026-04-20 21:10 38.03608 -84.60079 947 ft 9 kts 329°
2026-04-20 21:10 38.03676 -84.60106 947 ft 10 kts 349°
2026-04-20 21:10 38.03741 -84.60115 948 ft 9 kts
2026-04-20 21:11 38.03793 -84.60090 948 ft 7 kts 31°
2026-04-20 21:11 38.03830 -84.60056 948 ft 6 kts 37°
2026-04-20 21:11 38.03859 -84.60027 949 ft 6 kts 41°
2026-04-20 21:11 38.03908 -84.59998 950 ft 9 kts 339°
2026-04-20 21:12 38.03959 -84.59991 949 ft 7 kts 40°
2026-04-20 21:12 38.03992 -84.59954 951 ft 5 kts 41°
2026-04-20 21:12 38.04025 -84.59920 952 ft 7 kts 40°
2026-04-20 21:12 38.04067 -84.59873 953 ft 8 kts 43°
2026-04-20 21:13 38.04105 -84.59831 953 ft 7 kts 39°
2026-04-20 21:13 38.04139 -84.59825 952 ft 4 kts 330°
2026-04-20 21:13 38.04158 -84.59850 954 ft 5 kts 314°
2026-04-20 21:13 38.04186 -84.59903 953 ft 8 kts 271°
2026-04-20 21:14 38.04151 -84.59966 953 ft 10 kts 221°
2026-04-20 21:14 38.04007 -84.60126 949 ft 74 kts 221°
2026-04-20 21:14 38.03363 -84.60835 1083 ft 145 kts 221°
2026-04-20 21:14 38.02628 -84.61751 1784 ft 153 kts 232°
2026-04-20 21:15 38.02246 -84.63083 1988 ft 180 kts 270°
2026-04-20 21:15 38.02731 -84.64584 2072 ft 198 kts 310°
2026-04-20 21:15 38.03878 -84.65604 2187 ft 210 kts 338°
2026-04-20 21:15 38.05306 -84.65874 2584 ft 209 kts
2026-04-20 21:16 38.06775 -84.65507 2383 ft 208 kts 18°
2026-04-20 21:16 38.08057 -84.64700 2273 ft 216 kts 31°
2026-04-20 21:16 38.03521 -84.59781 949 ft 0 kts 95°
2026-04-20 21:32 38.03522 -84.59792 949 ft 4 kts 95°
2026-04-20 21:32 38.03524 -84.59825 949 ft 4 kts 103°
2026-04-20 21:33 38.03533 -84.59853 948 ft 4 kts 155°
2026-04-20 21:33 38.03540 -84.59855 945 ft 1 kts 229°
2026-04-20 21:33 38.03543 -84.59851 946 ft 0 kts 229°
2026-04-20 21:35 38.03542 -84.59852 946 ft 0 kts 229°
2026-04-20 21:35 38.03528 -84.59874 948 ft 8 kts 234°
2026-04-20 21:35 38.03516 -84.59941 948 ft 8 kts 273°
2026-04-20 21:36 38.03526 -84.60007 947 ft 7 kts 297°
2026-04-20 21:36 38.03562 -84.60044 947 ft 8 kts 326°
2026-04-20 21:36 38.03620 -84.60087 947 ft 11 kts 331°
2026-04-20 21:36 38.03707 -84.60112 947 ft 13 kts 353°
2026-04-20 21:37 38.03784 -84.60097 948 ft 11 kts 33°
2026-04-20 21:37 38.03841 -84.60047 949 ft 9 kts 37°
2026-04-20 21:37 38.03890 -84.59995 949 ft 9 kts 24°
2026-04-20 21:37 38.03942 -84.60008 950 ft 7 kts 15°
2026-04-20 21:38 38.03987 -84.59962 950 ft 9 kts 41°
2026-04-20 21:38 38.04030 -84.59915 952 ft 8 kts 42°
2026-04-20 21:38 38.04081 -84.59856 953 ft 10 kts 42°
2026-04-20 21:38 38.04133 -84.59821 954 ft 8 kts 350°
2026-04-20 21:39 38.04182 -84.59880 955 ft 12 kts 310°
2026-04-20 21:39 38.04162 -84.59955 952 ft 12 kts 222°
2026-04-20 21:39 38.03979 -84.60159 949 ft 81 kts 219°
2026-04-20 21:39 38.03318 -84.60908 1056 ft 151 kts 222°
2026-04-20 21:40 38.02493 -84.61912 1562 ft 172 kts 230°
2026-04-20 21:40 38.02033 -84.63244 2536 ft 164 kts 267°
2026-04-20 21:40 38.02481 -84.64592 3057 ft 181 kts 317°
2026-04-20 21:40 38.03597 -84.65211 3970 ft 179 kts 354°
2026-04-20 21:41 38.04885 -84.64839 4483 ft 211 kts 29°
2026-04-20 21:41 38.06002 -84.63418 4843 ft 246 kts 48°
2026-04-20 21:41 38.07488 -84.62279 4723 ft 252 kts 12°
2026-04-20 21:41 38.09174 -84.62461 4730 ft 249 kts 339°
2026-04-20 21:42 38.10692 -84.63411 5228 ft 236 kts 338°
2026-04-20 21:42 38.12247 -84.63795 6632 ft 222 kts 358°
2026-04-20 21:42 38.13714 -84.63461 8069 ft 212 kts
2026-04-20 21:42 38.15247 -84.63748 8218 ft 238 kts 333°
2026-04-20 21:43 38.16513 -84.65199 8007 ft 252 kts 303°
2026-04-20 21:43 38.16946 -84.67341 7808 ft 257 kts 272°
2026-04-20 21:43 38.17019 -84.69573 7666 ft 254 kts 289°
2026-04-20 21:43 38.18021 -84.71323 7441 ft 252 kts 323°
2026-04-20 21:44 38.19689 -84.71941 7239 ft 258 kts 357°
2026-04-20 21:44 38.21456 -84.71506 7182 ft 259 kts 11°
2026-04-20 21:44 38.23221 -84.71074 7144 ft 258 kts
2026-04-20 21:44 38.25008 -84.70998 7112 ft 254 kts 357°
2026-04-20 21:45 38.26712 -84.70928 7118 ft 238 kts 360°
2026-04-20 21:45 38.28368 -84.70735 7116 ft 242 kts
2026-04-20 21:45 38.30107 -84.70514 7259 ft 265 kts
2026-04-20 21:45 38.31888 -84.70306 8680 ft 254 kts
2026-04-20 21:46 38.33651 -84.70107 9878 ft 258 kts 359°
2026-04-20 21:46 38.35490 -84.69906 10558 ft 276 kts 359°
2026-04-20 21:46 38.37496 -84.69684 10837 ft 303 kts 360°
2026-04-20 21:46 38.39681 -84.69430 11123 ft 325 kts
2026-04-20 21:47 38.41933 -84.69157 12041 ft 324 kts
2026-04-20 21:47 38.44141 -84.68898 12956 ft 317 kts 359°
2026-04-20 21:47 38.46338 -84.68654 13882 ft 318 kts 359°
2026-04-20 21:47 38.48519 -84.68409 14728 ft 319 kts 359°
2026-04-20 21:48 38.50726 -84.68152 15580 ft 319 kts 359°
2026-04-20 21:48 38.52942 -84.67894 16452 ft 320 kts 359°
2026-04-20 21:48 38.55162 -84.67641 17354 ft 321 kts 359°
2026-04-20 21:48 38.57390 -84.67385 18294 ft 322 kts 359°
2026-04-20 21:49 38.59628 -84.67128 19169 ft 323 kts 358°
2026-04-20 21:49 38.61874 -84.66869 20014 ft 324 kts 358°
2026-04-20 21:49 38.64123 -84.66609 20905 ft 325 kts 358°
2026-04-20 21:49 38.66345 -84.66352 21798 ft 325 kts 358°
2026-04-20 21:50 38.68594 -84.66092 22728 ft 324 kts 358°
2026-04-20 21:50 38.70838 -84.65833 23674 ft 324 kts 358°
2026-04-20 21:50 38.73081 -84.65574 24518 ft 322 kts 358°
2026-04-20 21:50 38.75308 -84.65316 25319 ft 321 kts 358°
2026-04-20 21:51 38.77526 -84.65059 26170 ft 319 kts 358°
2026-04-20 21:51 38.79734 -84.64804 27009 ft 318 kts 358°
2026-04-20 21:51 38.81936 -84.64548 27849 ft 316 kts 358°
2026-04-20 21:51 38.84093 -84.64298 28695 ft 315 kts 358°
2026-04-20 21:52 38.86271 -84.64045 29572 ft 314 kts 358°
2026-04-20 21:52 38.88440 -84.63793 30450 ft 312 kts 358°
2026-04-20 21:52 38.90601 -84.63542 31194 ft 311 kts 357°
2026-04-20 21:52 38.92748 -84.63293 31935 ft 310 kts 357°
2026-04-20 21:53 38.94894 -84.63043 32677 ft 309 kts 357°
2026-04-20 21:53 38.97025 -84.62795 33411 ft 308 kts 357°
2026-04-20 21:53 38.99155 -84.62548 34147 ft 307 kts 357°
2026-04-20 21:53 39.01283 -84.62300 34804 ft 307 kts 357°
2026-04-20 21:54 39.03380 -84.62055 35400 ft 306 kts 357°
2026-04-20 21:54 39.05505 -84.61808 35996 ft 307 kts 357°
2026-04-20 21:54 39.07632 -84.61559 36590 ft 307 kts 357°
2026-04-20 21:54 39.09765 -84.61310 37172 ft 308 kts 357°
2026-04-20 21:55 39.11902 -84.61061 37754 ft 309 kts 357°
2026-04-20 21:55 39.14048 -84.60810 38333 ft 310 kts 357°
2026-04-20 21:55 39.16198 -84.60558 38906 ft 311 kts 357°
2026-04-20 21:55 39.18359 -84.60305 39361 ft 313 kts 357°
2026-04-20 21:56 39.20533 -84.60051 39786 ft 314 kts 357°
2026-04-20 21:56 39.22743 -84.59798 39890 ft 329 kts 357°
2026-04-20 21:56 39.25020 -84.59537 39185 ft 338 kts 358°
2026-04-20 21:56 39.27440 -84.59255 37307 ft 361 kts 358°
2026-04-20 21:57 39.30027 -84.58952 35193 ft 386 kts 358°
2026-04-20 21:57 39.32777 -84.58622 33445 ft 400 kts 359°
2026-04-20 21:57 39.35539 -84.58282 31947 ft 398 kts 359°
2026-04-20 21:57 39.38296 -84.57957 30300 ft 399 kts 359°
2026-04-20 21:58 39.41047 -84.57641 28816 ft 392 kts 359°
2026-04-20 21:58 39.43734 -84.57320 27415 ft 385 kts 359°
2026-04-20 21:58 39.46379 -84.57005 26065 ft 379 kts 359°
2026-04-20 21:58 39.48947 -84.56703 24779 ft 373 kts 359°
2026-04-20 21:59 39.51514 -84.56403 23424 ft 369 kts 359°
2026-04-20 21:59 39.54054 -84.56102 22104 ft 363 kts 359°
2026-04-20 21:59 39.56514 -84.55804 21412 ft 344 kts 359°
2026-04-20 21:59 39.58043 -84.55616 21371 ft 322 kts 359°
2026-04-20 22:00 39.60831 -84.55279 21367 ft 283 kts 358°
2026-04-20 22:00 39.62741 -84.55064 21368 ft 275 kts 357°
2026-04-20 22:00 39.64749 -84.54853 21377 ft 305 kts 358°
2026-04-20 22:00 39.66929 -84.54602 21388 ft 329 kts 359°
2026-04-20 22:01 39.69213 -84.54307 21385 ft 331 kts 359°
2026-04-20 22:01 39.71519 -84.54022 21377 ft 333 kts 359°
2026-04-20 22:01 39.73835 -84.53755 21377 ft 335 kts 359°
2026-04-20 22:01 39.76155 -84.53483 21372 ft 335 kts 359°
2026-04-20 22:02 39.78478 -84.53203 21373 ft 335 kts 359°
2026-04-20 22:02 39.80802 -84.52925 21374 ft 336 kts 359°
2026-04-20 22:02 39.83128 -84.52648 21372 ft 336 kts 359°
2026-04-20 22:02 39.85449 -84.52372 21373 ft 336 kts 359°
2026-04-20 22:03 39.87747 -84.52097 21372 ft 336 kts 359°
2026-04-20 22:03 39.90075 -84.51818 21372 ft 336 kts 359°
2026-04-20 22:03 39.92403 -84.51540 21371 ft 335 kts 359°
2026-04-20 22:03 39.94728 -84.51262 21371 ft 336 kts 359°
2026-04-20 22:04 39.97058 -84.50983 21375 ft 336 kts 359°
2026-04-20 22:04 39.99387 -84.50703 21375 ft 336 kts 359°
2026-04-20 22:04 40.01710 -84.50425 21374 ft 336 kts 359°
2026-04-20 22:04 40.04042 -84.50145 21375 ft 336 kts 359°
2026-04-20 22:05 40.06365 -84.49866 21375 ft 336 kts 359°
2026-04-20 22:05 40.08666 -84.49589 21364 ft 338 kts 359°
2026-04-20 22:05 40.11080 -84.49308 21367 ft 360 kts 359°
2026-04-20 22:05 40.13649 -84.49006 21369 ft 382 kts 359°
2026-04-20 22:06 40.16364 -84.48672 21369 ft 401 kts 360°
2026-04-20 22:06 40.19169 -84.48324 21358 ft 407 kts 360°
2026-04-20 22:06 40.22000 -84.47981 21358 ft 410 kts 360°
2026-04-20 22:06 40.24844 -84.47641 21357 ft 412 kts 360°
2026-04-20 22:07 40.27659 -84.47302 21358 ft 412 kts 360°
2026-04-20 22:07 40.30516 -84.46953 21359 ft 412 kts 360°
2026-04-20 22:07 40.33375 -84.46607 21360 ft 413 kts 360°
2026-04-20 22:07 40.36234 -84.46262 21360 ft 412 kts 360°
2026-04-20 22:08 40.39095 -84.45914 21362 ft 413 kts
2026-04-20 22:08 40.41951 -84.45568 21365 ft 412 kts
2026-04-20 22:08 40.44811 -84.45220 21368 ft 413 kts
2026-04-20 22:08 40.47670 -84.44873 21370 ft 413 kts
2026-04-20 22:09 40.50528 -84.44525 21369 ft 413 kts
2026-04-20 22:09 40.53348 -84.44182 21374 ft 413 kts
2026-04-20 22:09 40.56202 -84.43833 21377 ft 413 kts
2026-04-20 22:09 40.59065 -84.43484 21377 ft 413 kts
2026-04-20 22:10 40.61929 -84.43135 21377 ft 413 kts
2026-04-20 22:10 40.64784 -84.42786 21383 ft 413 kts
2026-04-20 22:10 40.67645 -84.42436 21382 ft 413 kts
2026-04-20 22:10 40.70502 -84.42086 21382 ft 413 kts
2026-04-20 22:11 40.73356 -84.41790 21366 ft 410 kts 357°
2026-04-20 22:11 40.76166 -84.42158 21365 ft 403 kts 346°
2026-04-20 22:11 40.78879 -84.42891 21376 ft 404 kts 345°
2026-04-20 22:11 40.81637 -84.43626 21376 ft 404 kts 345°
2026-04-20 22:12 40.84393 -84.44344 21375 ft 404 kts 345°
2026-04-20 22:12 40.87148 -84.45072 21378 ft 404 kts 345°
2026-04-20 22:12 40.89902 -84.45811 21376 ft 404 kts 345°
2026-04-20 22:12 40.92655 -84.46544 21372 ft 404 kts 345°
2026-04-20 22:13 40.95411 -84.47274 21376 ft 404 kts 345°
2026-04-20 22:13 40.98163 -84.48006 21375 ft 404 kts 345°
2026-04-20 22:13 41.00918 -84.48742 21394 ft 404 kts 345°
2026-04-20 22:13 41.03634 -84.49467 21393 ft 404 kts 345°
2026-04-20 22:14 41.06398 -84.50204 21397 ft 404 kts 345°
2026-04-20 22:14 41.09153 -84.50940 21394 ft 404 kts 345°
2026-04-20 22:14 41.11910 -84.51678 21400 ft 404 kts 345°
2026-04-20 22:14 41.14672 -84.52417 21400 ft 404 kts 345°
2026-04-20 22:15 41.17429 -84.53155 21405 ft 404 kts 345°
2026-04-20 22:15 41.20185 -84.53894 21407 ft 404 kts 345°
2026-04-20 22:15 41.22944 -84.54635 21421 ft 405 kts 345°
2026-04-20 22:15 41.25669 -84.55367 21425 ft 405 kts 345°
2026-04-20 22:16 41.28428 -84.56108 21427 ft 405 kts 345°
2026-04-20 22:16 41.31195 -84.56853 21136 ft 406 kts 345°
2026-04-20 22:16 41.33945 -84.57593 20609 ft 402 kts 345°
2026-04-20 22:16 41.36677 -84.58328 20084 ft 400 kts 345°
2026-04-20 22:17 41.39396 -84.59062 19562 ft 397 kts 345°
2026-04-20 22:17 41.42101 -84.59793 19042 ft 396 kts 345°
2026-04-20 22:17 41.44793 -84.60520 18509 ft 394 kts 345°
2026-04-20 22:17 41.47378 -84.61212 17997 ft 361 kts 345°
2026-04-20 22:18 41.49717 -84.61839 17298 ft 341 kts 345°
2026-04-20 22:18 41.52000 -84.62466 16790 ft 330 kts 345°
2026-04-20 22:18 41.54262 -84.63087 16359 ft 334 kts 345°
2026-04-20 22:18 41.56546 -84.63705 15917 ft 335 kts 345°
2026-04-20 22:19 41.58825 -84.64320 15472 ft 334 kts 345°
2026-04-20 22:19 41.61104 -84.64939 15030 ft 334 kts 345°
2026-04-20 22:19 41.63375 -84.65558 14590 ft 333 kts 345°
2026-04-20 22:19 41.65641 -84.66174 14156 ft 332 kts 345°
2026-04-20 22:20 41.67868 -84.66779 13680 ft 330 kts 345°
2026-04-20 22:20 41.70092 -84.67384 13248 ft 326 kts 345°
2026-04-20 22:20 41.72313 -84.67991 12819 ft 324 kts 345°
2026-04-20 22:20 41.74439 -84.68566 12407 ft 298 kts 345°
2026-04-20 22:21 41.76397 -84.69096 12035 ft 276 kts 345°
2026-04-20 22:21 41.78231 -84.69601 11686 ft 265 kts 344°
2026-04-20 22:21 41.80024 -84.70096 11344 ft 262 kts 344°
2026-04-20 22:21 41.81812 -84.70586 11003 ft 262 kts 345°
2026-04-20 22:22 41.83579 -84.71069 10664 ft 263 kts 345°
2026-04-20 22:22 41.85390 -84.71427 10288 ft 267 kts 355°
2026-04-20 22:22 41.87231 -84.70946 9903 ft 275 kts 15°
2026-04-20 22:22 41.88869 -84.69578 9623 ft 282 kts 37°
2026-04-20 22:23 41.90121 -84.67528 9383 ft 286 kts 50°
2026-04-20 22:23 41.91280 -84.65349 9123 ft 288 kts 50°
2026-04-20 22:23 41.92451 -84.63174 8832 ft 287 kts 50°
2026-04-20 22:23 41.93623 -84.61012 8531 ft 285 kts 51°
2026-04-20 22:24 41.94783 -84.58862 8240 ft 284 kts 51°
2026-04-20 22:24 41.95934 -84.56723 7952 ft 282 kts 51°
2026-04-20 22:24 41.97064 -84.54622 7672 ft 280 kts 52°
2026-04-20 22:24 41.98205 -84.52502 7387 ft 279 kts 52°
2026-04-20 22:25 41.99341 -84.50390 7106 ft 279 kts 53°
2026-04-20 22:25 42.00473 -84.48284 6833 ft 277 kts 53°
2026-04-20 22:25 42.01601 -84.46184 6549 ft 277 kts 53°
2026-04-20 22:25 42.02726 -84.44085 6264 ft 275 kts 53°
2026-04-20 22:26 42.03843 -84.42001 5985 ft 274 kts 53°
2026-04-20 22:26 42.04955 -84.39927 5713 ft 269 kts 53°
2026-04-20 22:26 42.05992 -84.37988 5447 ft 246 kts 53°
2026-04-20 22:27 42.07885 -84.34404 5000 ft 228 kts 57°
2026-04-20 22:27 42.08549 -84.32524 5026 ft 219 kts 65°
2026-04-20 22:27 42.09212 -84.30653 5022 ft 223 kts 64°
2026-04-20 22:27 42.09896 -84.28740 5031 ft 228 kts 64°
2026-04-20 22:28 42.10563 -84.26840 5035 ft 228 kts 64°
2026-04-20 22:28 42.11245 -84.24888 5032 ft 227 kts 64°
2026-04-20 22:28 42.11920 -84.22958 5034 ft 228 kts 64°
2026-04-20 22:28 42.12591 -84.21044 5028 ft 228 kts 64°
2026-04-20 22:29 42.13265 -84.19115 5028 ft 228 kts 64°
2026-04-20 22:29 42.13942 -84.17179 5029 ft 230 kts 64°
2026-04-20 22:29 42.14620 -84.15237 5029 ft 229 kts 64°
2026-04-20 22:29 42.15297 -84.13301 5029 ft 229 kts 64°
2026-04-20 22:30 42.16234 -84.11620 4718 ft 223 kts 36°
2026-04-20 22:30 42.17656 -84.10699 4059 ft 232 kts 18°
2026-04-20 22:30 42.19117 -84.09977 4029 ft 217 kts 18°
2026-04-20 22:30 42.20514 -84.09273 4030 ft 218 kts 18°
2026-04-20 22:31 42.21940 -84.08560 4027 ft 220 kts 18°
2026-04-20 22:31 42.23378 -84.07839 4023 ft 220 kts 18°
2026-04-20 22:31 42.24816 -84.07123 4021 ft 221 kts 18°
2026-04-20 22:31 42.26264 -84.06400 4013 ft 222 kts 18°
2026-04-20 22:32 42.27702 -84.05678 4017 ft 220 kts 18°
2026-04-20 22:32 42.29143 -84.04957 4013 ft 222 kts 18°
2026-04-20 22:32 42.30585 -84.04231 4014 ft 221 kts 18°
2026-04-20 22:32 42.32027 -84.03515 4016 ft 222 kts 18°
2026-04-20 22:33 42.33455 -84.02801 4014 ft 221 kts 18°
2026-04-20 22:33 42.34895 -84.02082 4014 ft 221 kts 18°
2026-04-20 22:33 42.36338 -84.01357 4020 ft 222 kts 18°
2026-04-20 22:33 42.37791 -84.00626 4018 ft 222 kts 18°
2026-04-20 22:34 42.39245 -83.99906 4013 ft 222 kts 18°
2026-04-20 22:34 42.40695 -83.99183 4013 ft 221 kts 18°
2026-04-20 22:34 42.42105 -83.98357 3950 ft 225 kts 32°
2026-04-20 22:34 42.42949 -83.96616 3911 ft 225 kts 74°
2026-04-20 22:35 42.43167 -83.94517 4023 ft 227 kts 83°
2026-04-20 22:35 42.43345 -83.92422 4021 ft 228 kts 83°
2026-04-20 22:35 42.43534 -83.90297 4020 ft 229 kts 83°
2026-04-20 22:35 42.43715 -83.88177 4017 ft 226 kts 83°
2026-04-20 22:36 42.43895 -83.86071 4011 ft 225 kts 83°
2026-04-20 22:36 42.44077 -83.83955 4014 ft 227 kts 83°
2026-04-20 22:36 42.44260 -83.81833 4017 ft 227 kts 83°
2026-04-20 22:36 42.44442 -83.79714 4022 ft 226 kts 83°
2026-04-20 22:37 42.44552 -83.78322 4013 ft 226 kts 84°
2026-04-20 22:37 42.44732 -83.75504 4017 ft 228 kts 85°
2026-04-20 22:37 42.44865 -83.73374 4016 ft 226 kts 85°
2026-04-20 22:37 42.44997 -83.71256 4019 ft 226 kts 85°
2026-04-20 22:38 42.45130 -83.69134 4018 ft 226 kts 85°
2026-04-20 22:38 42.45264 -83.67008 4017 ft 228 kts 85°
2026-04-20 22:38 42.45398 -83.64884 4022 ft 228 kts 85°
2026-04-20 22:38 42.45487 -83.63478 4023 ft 224 kts 85°
2026-04-20 22:39 42.45621 -83.61364 4018 ft 226 kts 85°
2026-04-20 22:39 42.45755 -83.59242 4021 ft 227 kts 85°
2026-04-20 22:39 42.45916 -83.56430 4021 ft 226 kts 86°
2026-04-20 22:39 42.46001 -83.54314 4020 ft 227 kts 86°
2026-04-20 22:40 42.46083 -83.52184 4021 ft 228 kts 86°
2026-04-20 22:40 42.46135 -83.50766 4020 ft 226 kts 86°
2026-04-20 22:40 42.46211 -83.48646 4026 ft 226 kts 87°
2026-04-20 22:40 42.46292 -83.46449 4034 ft 249 kts 86°
2026-04-20 22:41 42.46377 -83.44149 4025 ft 230 kts 86°
2026-04-20 22:41 42.46452 -83.42048 4002 ft 220 kts 86°
2026-04-20 22:41 42.46530 -83.39979 4007 ft 222 kts 86°
2026-04-20 22:41 42.46720 -83.37223 3967 ft 225 kts 73°
2026-04-20 22:42 42.47168 -83.35947 3994 ft 222 kts 59°
2026-04-20 22:42 42.47975 -83.34142 4015 ft 224 kts 57°
2026-04-20 22:42 42.48770 -83.32368 4016 ft 225 kts 57°
2026-04-20 22:42 42.49555 -83.30593 3676 ft 218 kts 58°
2026-04-20 22:43 42.50371 -83.28743 3015 ft 234 kts 58°
2026-04-20 22:43 42.51176 -83.26923 2997 ft 219 kts 57°
2026-04-20 22:43 42.51951 -83.25159 2990 ft 218 kts 58°
2026-04-20 22:43 42.52870 -83.23548 2846 ft 217 kts 36°
2026-04-20 22:44 42.54280 -83.23031 2433 ft 205 kts 349°
2026-04-20 22:44 42.55411 -83.23893 2472 ft 179 kts 317°
2026-04-20 22:44 42.56383 -83.24949 2605 ft 186 kts 325°
2026-04-20 22:44 42.57552 -83.25665 2611 ft 188 kts 338°
2026-04-20 22:45 42.58799 -83.26206 2604 ft 189 kts 340°
2026-04-20 22:45 42.60043 -83.26763 2605 ft 189 kts 339°
2026-04-20 22:45 42.61284 -83.27343 2611 ft 189 kts 338°
2026-04-20 22:45 42.62533 -83.27928 2603 ft 190 kts 338°
2026-04-20 22:46 42.63772 -83.28505 2597 ft 188 kts 338°
2026-04-20 22:46 42.64984 -83.29069 2599 ft 179 kts 339°
2026-04-20 22:46 42.66026 -83.29885 2566 ft 172 kts 314°
2026-04-20 22:46 42.66660 -83.31239 2492 ft 166 kts 289°
2026-04-20 22:47 42.66783 -83.32711 2282 ft 154 kts 268°
2026-04-20 22:47 42.66729 -83.34172 1733 ft 161 kts 269°
2026-04-20 22:47 42.66689 -83.35564 1603 ft 133 kts 269°
2026-04-20 22:47 42.66666 -83.36784 1489 ft 126 kts 269°
2026-04-20 22:48 42.66639 -83.37950 1383 ft 121 kts 269°
2026-04-20 22:48 42.66601 -83.39099 1268 ft 122 kts 269°
2026-04-20 22:48 42.66564 -83.40267 1121 ft 125 kts 269°
2026-04-20 22:48 42.66527 -83.41429 993 ft 119 kts 270°
2026-04-20 22:49 42.66498 -83.42395 982 ft 77 kts 264°
2026-04-20 22:49 42.66478 -83.42853 982 ft 30 kts 269°
2026-04-20 22:49 42.66448 -83.42966 983 ft 9 kts 186°
2026-04-20 22:49 42.66394 -83.42941 982 ft 8 kts 118°
2026-04-20 22:50 42.66393 -83.42872 980 ft 7 kts 84°
2026-04-20 22:50 42.66395 -83.42805 979 ft 7 kts 89°
2026-04-20 22:50 42.66377 -83.42750 983 ft 7 kts 168°
2026-04-20 22:50 42.66350 -83.42707 981 ft 7 kts 90°
2026-04-20 22:51 42.66326 -83.42661 980 ft 7 kts 168°
2026-04-20 22:51 42.66289 -83.42661 978 ft 2 kts 179°
2026-04-20 22:51 42.66288 -83.42661 978 ft 0 kts 180°